Regional Weather Roundup
Issued by NWS

Home | Current Version | Previous Version | Text Only | Print | Product List | Glossary Off
Versions: 1 2 3 4 5 6 7 8 9 10 11 12 13 14 15 16 17 18 19 20 21 22 23 24 25 26 27 28 29 30 31 32 33 34 35 36 37 38 39 40 41 42 43 44 45 46 47 48 49 50

000
ASUS43 KLOT 280403
RWRIL

ILLINOIS REGIONAL WEATHER ROUNDUP
NATIONAL WEATHER SERVICE CHICAGO/ROMEOVILLE IL
1100 PM CDT MON MAR 27 2017

NOTE: "FAIR" INDICATES FEW OR NO CLOUDS BELOW 12,000 FEET WITH NO
SIGNIFICANT WEATHER AND/OR OBSTRUCTIONS TO VISIBILITY.

* THESE STATIONS ARE NOT UNDER NWS QUALITY CONTROL. THEY ALSO MAY NOT
  REPORT WEATHER SUCH AS PRECIPITATION OR FOG.

ILZ001-002-007-009-015-016-024-280500-
NORTHWEST ILLINOIS

CITY           SKY/WX    TMP DP  RH WIND       PRES   REMARKS
MOLINE         CLOUDY    50  45  83 NE5       29.97S
STERLING*      CLOUDY    49  46  90 N6        29.98R
SAVANNA*       CLOUDY    48  45  87 N3        29.99R
$$

ILZ003-004-008-010-011-017-018-280500-
NORTH CENTRAL ILLINOIS

CITY           SKY/WX    TMP DP  RH WIND       PRES   REMARKS
ROCKFORD       CLOUDY    48  44  86 E6        30.00R
FREEPORT*      CLOUDY    46  44  92 N5        30.00R
ROCHELLE*      CLOUDY    46  44  93 E7        29.98R FOG
DE KALB*       CLOUDY    44  42  93 NE7       29.98R FOG
$$

ILZ005-006-012>014-019>023-280500-
NORTHEAST ILLINOIS

CITY           SKY/WX    TMP DP  RH WIND       PRES   REMARKS
CHICAGO-OHARE  CLOUDY    42  36  79 NE9       29.98R
CHICAGO-MIDWAY CLOUDY    42  37  82 N9        29.98R
AURORA         CLOUDY    44  39  82 NE9       29.97S
LANSING*       CLOUDY    40  38  91 NE10      29.97S
JOLIET*        CLOUDY    46  40  82 NE10      29.97R
WAUKEGAN       CLOUDY    39  36  89 N6        29.99R WCI  35
DUPAGE AIRPORT CLOUDY    42  40  92 NE8       29.97R
WHEELING       CLOUDY    40  38  93 N7        29.99S
MORRIS*        CLOUDY    46  42  88 CALM      29.96R
NORTHERLY ISL    N/A     39  37  92 MISG        N/A
$$

LMZ740>746-280500-
SOUTHERN LAKE MICHIGAN

STATION/POSITION SKY/WX   TEMP    WIND        PRES    VSBY  WAVE
                          AIR SEA DIR/SP/G                  HT/PER
                          (F)     (DEG/KT/KT) (MB)    (MI)  (FT/S)
HARRISON CRIB              39     340/  7/  9   N/A
BURNHAM HARBOR             39     340/  6/  8   N/A
CALUMET HARBOR             39     350/  7/ 10 1014.6S
BURNS HARBOR               39      30/  9/ 10 1015.2S
MICHIGAN CITY              38      30/  9/ 10   N/A
$$

ILZ025>027-034>036-040-047-049-050-058-095>099-280500-
WEST-CENTRAL ILLINOIS

CITY           SKY/WX    TMP DP  RH WIND       PRES   REMARKS
QUINCY         CLOUDY    50  48  93 N6        29.96S
GALESBURG*     CLOUDY    49  48  97 N6        29.96S FOG
MACOMB*        CLOUDY    50  49  95 N7        29.98S FOG
JACKSONVILLE*  CLOUDY    52  50  93 N7        29.94R
PITTSFIELD*    CLOUDY    53  50  90 N5        29.96S
$$

ILZ028>032-037-038-041>044-048-051>054-059>061-280500-
CENTRAL ILLINOIS

CITY           SKY/WX    TMP DP  RH WIND       PRES   REMARKS
PONTIAC        CLOUDY    47  46  98 NE13      29.96R FOG
BLOOMINGTON    CLOUDY    51  49  92 NE16      29.93S FOG
DECATUR        PTCLDY    51  49  92 N9        29.91S
PEORIA         CLOUDY    52  49  89 N3        29.94S
SPRINGFIELD    PTCLDY    52  50  93 N7        29.93R
TAYLORVILLE    NOT AVBL
$$

ILZ033-039-045-046-055>057-062-063-280500-
EAST-CENTRAL ILLINOIS

CITY           SKY/WX    TMP DP  RH WIND       PRES   REMARKS
CHAMPAIGN      CLOUDY    54  51  90 N10       29.91R
RANTOUL*       CLOUDY    52  51  97 N14       29.92R FOG
MATTOON        CLOUDY    54  54 100 N17       29.88R FOG
PARIS*         DRIZZLE   55  54  97 N9        29.88R
$$

ILZ079-100>102-280500-
SOUTHWEST ILLINOIS

CITY           SKY/WX    TMP DP  RH WIND       PRES   REMARKS
CAHOKIA*       PTCLDY    54  50  86 NW7       29.93R
SPARTA*        CLOUDY    55  53  92 NW6       29.93R
$$

ILZ064>066-069>071-074>076-080>082-084>086-088>090-092>094-280500-
SOUTH-CENTRAL ILLINOIS

CITY           SKY/WX    TMP DP  RH WIND       PRES   REMARKS
CARBONDALE     CLOUDY    57  54  89 NW9       29.90S
CAIRO*         CLEAR     56  53  89 NW10      29.90S
EFFINGHAM*     CLOUDY    55  55 100 N9        29.88F
MARION         CLOUDY    57  55  94 W3        29.90F
MT. VERNON     CLOUDY    56  54  93 VRB3      29.88R
CENTRALIA*     CLOUDY    56  55  97 NW8       29.88R
SALEM*         CLOUDY    56  54  92 N13       29.88S
$$

ILZ067-068-072-073-078-083-087-091-280500-
SOUTHEAST ILLINOIS

CITY           SKY/WX    TMP DP  RH WIND       PRES   REMARKS
LAWRENCEVILLE  CLOUDY    57  55  93 W7        29.85R
FLORA*         CLOUDY    57  55  92 N15       29.86S
FAIRFIELD*     CLOUDY    56  55  94 W5        29.86R
HARRISBURG*    CLOUDY    57  53  86 W7        29.89S
ROBINSON*      RAIN      56  55  97 NW8       29.86R
CARMI*         CLOUDY    55  53  90 W7        29.86F
$$

ABBREVIATIONS USED IN REMARKS
   TC - TEMPERATURE IN CELSIUS
  WCI - WIND CHILL INDEX
   HX - HEAT INDEX
  VSB - VISIBILITY
$$




USA.gov is the U.S. government's official web portal to all federal, state and local government web resources and services.